Flag for Luxembourg Weather past 2 weeks in Ettelbruck, Luxembourg

Now
68 °F

Passing clouds.


Feels Like: 68 °F
Forecast: 53 / 70 °F
Wind: 3 mph from East

Location: Luxembourg / Luxembourg

Current Time: Sep 2, 2014 at 4:14:02 PM

Latest Report: Sep 2, 2014 at 3:00 PM


Visibility: 19 mi

Pressure: 30.14 "Hg

Humidity: 53%

Dew point: 50 °F

Location of EttelbruckLocation

Historic Weather in Ettelbruck — Graph

°F

Ettelbruck temperature yesterday

Maximum temperature yesterday: 64 °F (at 5:00 PM)
Minimum temperature yesterday: 48 °F (at 6:00 AM)
Average temperature yesterday: 56 °F

Past Weeks' High & Low Weather Summary

 TemperatureHumidityPressure
High72 °F (Aug 29, 4:00 PM)100% (Aug 19, 7:00 AM)30.18 "Hg (Aug 19, 7:00 AM)
Low44 °F (Aug 21, 7:00 AM)41% (Aug 21, 5:00 PM)29.65 "Hg (Aug 26, 6:00 AM)
Average57 °F81%30.00 "Hg
* Reported Aug 18 2:00 PM — Sep 2 2:00 PM, Ettelbruck, Weather by CustomWeather, © 2014

Note: Actual official high and low records may vary slightly from our data, if they occured in-between our weather recording intervals... More about our weather records

Advertising

Ettelbruck weather history for previous 24 hours

 ConditionsComfort  
Time TempWeatherWind HumidityBarometerVisibility
2:00 PM
Sep 2
69 °FPassing clouds.5 mph53%30.14 "Hg19 mi
1:00 PM67 °FPassing clouds.3 mph60%30.16 "Hg19 mi
12:00 PM65 °FPassing clouds.3 mph61%30.17 "Hg17 mi
11:00 AM63 °FPassing clouds.2 mph65%30.17 "Hg16 mi
10:00 AM61 °FScattered clouds.2 mph77%30.17 "Hg11 mi
9:00 AM60 °FScattered clouds.1 mph79%30.16 "Hg8 mi
8:00 AM57 °FPartly sunny.3 mph86%30.17 "Hg8 mi
7:00 AM55 °FPartly sunny.1 mph89%30.16 "Hg6 mi
6:00 AM54 °FPassing clouds.1 mph89%30.16 "Hg7 mi
5:00 AM55 °FCool.2 mph85%30.16 "Hg6 mi
4:00 AM53 °FCool.2 mph90%30.17 "Hg6 mi
3:00 AM54 °FCool.1 mph87%30.17 "Hg6 mi
2:00 AM53 °FCool.1 mph93%30.17 "Hg6 mi
1:00 AM55 °FCool.1 mph86%30.17 "Hg6 mi
12:00 AM55 °FPassing clouds.No wind91%30.17 "Hg19 mi
11:00 PM
Sep 1
58 °FCool.No wind84%30.17 "Hg6 mi
10:00 PM57 °FPassing clouds.1 mph88%30.17 "Hg19 mi
9:00 PM61 °FPassing clouds.1 mph72%30.15 "Hg19 mi
8:00 PM62 °FPartly sunny.1 mph68%30.14 "Hg19 mi
7:00 PM64 °FPartly sunny.No wind61%30.14 "Hg19 mi
6:00 PM64 °FPartly sunny.2 mph61%30.14 "Hg19 mi
5:00 PM64 °FPartly sunny.2 mph59%30.14 "Hg19 mi
4:00 PM64 °FPartly sunny.5 mph59%30.14 "Hg19 mi
Weather by CustomWeather, © 2014

See weather overviewHow to use our weather pages